Snowfall_Accumulation
0.0 0.0 0.0 0.0 0.0 0.0 0.0 0.1 0.2 0.3 0.0 0.0 0.0 0.0 0.0 0.0 0.0 0.0 0.0 0.0 0.0 0.0 0.0 0.0 0.0 0.0 0.0 0.0 0.0 0.0 0.0 0.0 0.0 0.0 0.0 0.0 0.0 0.0
0.0 0.0 0.0 0.0 0.0 0.0 0.0 0.0 0.1 0.3 0.3 0.0 0.0 0.0 0.0 0.0 0.0 0.0 0.0 0.0 0.0 0.0 0.1 0.1 0.1 0.1 0.1 0.0 0.0 0.0 0.0 0.0 0.0 0.0 0.0 0.0 0.0 0.0
0.0 0.0 0.0 0.1 0.1 0.1 0.1 0.1 0.1 0.2 0.4 0.1 0.1 0.1 0.1 0.0 0.0 0.0 0.0 0.0 0.0 0.1 0.1 0.1 0.1 0.1 0.1 0.1 0.1 0.1 0.0 0.0 0.0 0.0 0.0 0.0 0.0 0.0
0.1 0.0 0.1 0.1 0.1 0.2 0.1 0.2 0.2 0.3 0.9 1.0 0.3 0.2 0.2 0.2 0.1 0.1 0.0 0.0 0.0 0.0 0.1 0.2 0.2 0.2 0.2 0.2 0.2 0.1 0.1 0.0 0.0 0.0 0.0 0.0 0.0 0.0
0.1 0.2 0.2 0.2 0.2 0.2 0.3 0.3 0.4 0.4 0.7 1.1 0.6 0.2 0.2 0.1 0.2 0.1 0.1 0.0 0.0 0.0 0.0 0.1 0.1 0.2 0.3 0.3 0.3 0.2 0.2 0.2 0.1 0.1 0.1 0.0 0.0 0.0
0.4 0.4 0.6 0.5 0.6 0.5 0.5 0.6 0.8 0.9 1.0 1.4 1.6 1.1 0.8 0.4 0.4 0.3 0.2 0.1 0.1 0.1 0.1 0.0 0.1 0.2 0.2 0.2 0.2 0.3 0.3 0.3 0.4 0.3 0.4 0.2 0.1 0.1
0.5 0.5 0.4 0.3 0.3 0.4 0.6 1.0 1.2 1.7 2.4 2.8 2.5 1.8 1.1 0.9 0.8 0.7 0.9 0.4 0.3 0.1 0.1 0.1 0.1 0.1 0.1 0.1 0.1 0.1 0.2 0.4 0.6 0.6 0.5 0.4 0.2 0.1
0.3 0.6 0.4 0.5 0.4 0.4 0.6 1.0 1.8 2.9 3.8 4.1 3.7 2.6 1.3 0.9 0.9 1.2 1.7 2.5 2.0 0.4 0.5 0.4 0.3 0.2 0.2 0.1 0.1 0.3 0.4 0.7 0.8 0.9 0.7 0.6 0.4 0.2
0.9 0.7 0.5 0.5 0.6 0.5 0.5 1.0 1.5 2.0 2.6 3.1 3.0 1.9 1.4 1.2 2.3 3.6 3.7 4.0 3.1 1.1 1.1 1.2 0.4 0.4 0.2 0.2 0.2 0.4 0.4 0.6 0.7 0.9 0.8 0.6 0.5 0.4
0.7 0.5 0.6 0.6 0.5 0.8 1.5 1.9 1.2 0.7 0.7 0.8 1.1 1.2 1.2 1.4 3.0 5.3 5.2 4.1 1.9 0.8 0.8 2.2 0.8 0.6 0.2 0.2 0.2 0.3 0.4 0.6 0.8 0.9 0.9 0.7 0.6 0.6
0.5 0.5 0.6 0.5 0.7 1.9 3.1 2.8 1.3 0.3 0.2 0.5 0.9 0.9 0.9 1.0 1.4 3.9 5.5 6.2 4.5 1.2 1.2 2.0 1.4 1.2 1.0 0.7 0.2 0.4 0.8 0.8 1.1 1.0 1.0 1.0 0.8 0.8
0.6 0.6 0.5 0.7 1.3 2.5 3.0 2.7 1.9 0.7 0.9 0.7 0.4 0.2 0.3 0.3 0.6 2.9 7.1 11.5 9.2 5.3 1.7 3.1 3.6 4.2 5.3 2.1 1.7 1.3 1.1 1.1 1.1 0.9 1.1 1.1 1.2 1.3
1.3 1.0 0.4 1.0 2.0 2.4 2.2 1.5 1.7 2.4 1.9 1.1 0.8 0.7 0.7 0.6 0.8 1.5 3.9 11.0 14.8 9.6 3.0 7.2 8.8 6.1 9.8 7.2 3.1 2.3 2.3 2.6 2.1 1.4 1.2 1.1 1.2 1.6
1.7 1.0 0.9 1.7 1.9 1.5 1.2 1.2 1.6 1.5 1.3 1.7 1.6 1.6 1.7 1.7 1.9 2.1 3.1 5.3 8.4 9.6 6.3 9.5 14.8 11.4 13.9 11.2 5.9 3.9 2.6 3.5 4.3 3.0 1.9 1.1 1.0 1.1
1.2 1.5 1.6 1.5 1.3 1.2 1.0 1.3 1.6 1.8 2.5 3.5 3.1 2.4 2.5 2.9 3.0 3.9 4.1 4.4 5.1 5.5 7.2 7.8 11.2 12.3 14.8 14.4 10.4 8.0 8.3 5.4 5.4 5.0 3.5 2.3 1.6 1.5
1.7 1.4 1.2 1.0 1.1 1.3 1.3 1.6 1.6 2.5 4.3 5.8 5.3 4.0 3.7 4.5 5.9 7.2 8.7 9.2 11.0 9.4 8.2 7.9 8.3 12.0 14.2 11.5 12.4 11.6 11.3 11.7 8.4 6.5 5.0 3.6 2.2 1.7
2.1 1.4 1.5 1.5 1.6 1.8 1.7 1.9 2.2 2.6 4.3 5.5 6.3 7.0 7.0 8.0 9.7 11.4 12.7 12.8 12.7 11.0 8.9 7.0 6.5 7.0 9.0 10.5 11.6 11.0 11.4 11.6 9.0 6.3 6.2 6.3 3.2 2.3
1.9 2.2 2.1 2.2 2.5 2.5 2.8 2.7 2.9 3.8 5.4 7.1 8.3 9.5 11.5 12.3 12.6 12.3 12.9 13.3 12.5 9.8 8.3 6.8 6.8 7.4 6.9 6.3 8.4 11.1 11.7 11.8 8.4 7.1 7.2 8.6 6.7 3.7
2.5 2.7 2.6 2.8 3.1 3.5 4.0 4.7 4.3 4.7 6.5 9.0 11.3 13.1 14.3 14.6 14.3 13.6 12.4 11.3 9.9 7.8 6.8 6.1 7.1 11.8 12.7 8.4 6.1 8.1 13.5 13.7 9.7 7.9 7.5 8.3 8.5 5.8
3.0 4.2 4.4 3.9 4.1 4.8 5.5 6.5 7.3 7.9 8.9 11.4 12.9 14.3 15.8 16.5 15.0 12.6 10.7 9.8 8.8 7.1 5.5 4.6 5.9 11.2 17.3 15.7 12.2 9.6 9.4 14.0 15.3 13.4 8.5 6.0 5.4 3.8
4.5 5.0 5.2 5.0 4.9 6.1 7.0 8.4 10.0 11.8 12.4 14.3 15.0 15.7 16.2 16.2 13.5 10.0 8.4 7.0 7.3 7.4 7.1 5.2 4.5 6.1 10.6 13.9 12.5 8.9 9.8 8.3 10.8 16.6 16.1 13.9 10.8 7.9
3.8 4.5 4.9 5.1 5.6 7.2 8.2 9.8 11.5 12.3 13.5 14.6 15.6 15.5 14.5 13.3 11.4 8.3 7.2 7.4 7.1 6.7 6.3 5.0 4.1 5.1 8.5 12.6 11.4 8.6 8.9 8.8 6.6 5.5 8.1 12.7 20.7 21.1
4.1 4.8 5.7 5.9 6.9 8.2 10.0 11.2 12.0 12.7 14.2 15.5 15.4 14.0 12.1 10.1 7.8 7.3 7.3 7.4 7.4 6.8 6.3 6.1 5.4 5.5 6.6 8.4 9.7 8.9 8.0 7.5 7.1 7.4 9.4 6.3 6.6 8.0